User: anonymous   Login
Location: Fremont
(37.5480°N, 121.9880°W)
Time: 23:40:41
(UTC-07:00)
Language:

Cosmos 1766 - Orbit

View from above orbital plane
View from above orbital plane
View from above satellite
View from above satellite

Ground track
Ground track

The orbit data is extracted from the following two-line orbital elements,

1 16881U 86055A   15089.19346911  .00004888  00000-0  31840-3 0  9992
2 16881 082.5065 094.9442 0009257 336.2402 023.8397 15.07698507559264
Epoch (UTC): 30 March 2015 04:38:35
Eccentricity: 0.0009257
inclination: 82.5065°
perigee height: 537 km
apogee height: 549 km
right ascension of ascending node: 94.9442°
argument of perigee: 336.2402°
revolutions per day: 15.07698507
mean anomaly at epoch: 23.8397°
orbit number at epoch: 55926

The dashed part of the orbit path shows where the satellite is in the earth's shadow,  

DLR